Rolla, ND

4:45 AM CST on February 25, 2017 (GMT -0600)
Rolla

Weather History for K06D - January, 2013

Change the Weather History Date:

Wednesday, January 23, 2013

  Actual Average (KRUG) Record (KRUG)
Temperature  
Mean Temperature -9 °F -  
Max Temperature 0 °F 20 °F 44 °F (1981)
Min Temperature -18 °F 1 °F -34 °F (1966)
Degree Days  
Heating Degree Days 74    
Moisture  
Dew Point -18 °F    
Average Humidity 73    
Maximum Humidity 85    
Minimum Humidity 63    
Precipitation  
Precipitation 0.00 in - - ()
Sea Level Pressure  
Sea Level Pressure 30.38 in    
Wind  
Wind Speed 14 mph (North)    
Max Wind Speed 24 mph    
Max Gust Speed 30 mph    
Visibility 10 miles    
Events Snow    
Averages and records for this station are not official NWS values.
T = Trace of Precipitation, MM = Missing Value Source: NWS Daily Summary

Daily Weather History Graph

Daily Weather History Graph

Search for Another Location

Airport or City:

Trip Planner

Search our weather history database for the weather conditions in past years. The results will help you decide how hot, cold, wet, or windy it might be!

Date:

Astronomy

Jan. 23, 2013 Rise Set
Actual Time 8:19 AM CST 5:22 PM CST
Civil Twilight 7:44 AM CST 5:57 PM CST
Nautical Twilight 7:05 AM CST 6:35 PM CST
Astronomical Twilight 6:28 AM CST 7:13 PM CST
Moon 2:29 PM CST (1/23) 5:36 AM CST (1/23)
Length of Visible Light 10h 12m
Length of Day
9h 02m
Waxing Gibbous, 89% of the Moon is Illuminated
Jan 23
Waxing Gibbous
Jan 26
Full
Feb 3
Last Quarter
Feb 10
New
Feb 17
First Quarter

Hourly Weather History & Observations

Time (CST) Temp. Windchill Dew Point Humidity Pressure Visibility Wind Dir Wind Speed Gust Speed Precip Events Conditions
12:15 AM -0.4 °F -21.7 °F -4.0 °F 85% 30.08 in 10.0 mi NW 18.4 mph - N/A   Clear
12:35 AM -0.4 °F -21.2 °F -4.0 °F 85% 30.08 in 10.0 mi NW 17.3 mph - N/A   Clear
12:55 AM -0.4 °F -19.9 °F -5.8 °F 78% 30.08 in 10.0 mi NW 15.0 mph - N/A   Clear
3:55 AM -2.2 °F -25.7 °F -7.6 °F 78% 30.13 in 10.0 mi NNW 21.9 mph - N/A   Clear
4:15 AM -4.0 °F -29.1 °F -7.6 °F 85% 30.14 in 10.0 mi NNW 24.2 mph 29.9 mph N/A   Partly Cloudy
4:35 AM -4.0 °F -28.6 °F -9.4 °F 78% 30.15 in 10.0 mi NNW 23.0 mph 28.8 mph N/A   Scattered Clouds
4:55 AM -4.0 °F -28.1 °F -9.4 °F 78% 30.16 in 10.0 mi NNW 21.9 mph - N/A   Mostly Cloudy
5:15 AM -5.8 °F -29.9 °F -9.4 °F 84% 30.17 in 10.0 mi NNW 20.7 mph - N/A   Scattered Clouds
5:35 AM -7.6 °F -31.7 °F -11.2 °F 84% 30.19 in 10.0 mi NNW 19.6 mph 25.3 mph N/A   Clear
6:15 AM -7.6 °F -30.5 °F -13.0 °F 77% 30.21 in 10.0 mi NNW 17.3 mph - N/A   Partly Cloudy
6:35 AM -9.4 °F -32.1 °F -13.0 °F 84% 30.22 in 10.0 mi NNW 16.1 mph - N/A   Scattered Clouds
6:55 AM -9.4 °F -31.4 °F -13.0 °F 84% 30.23 in 10.0 mi North 15.0 mph - N/A Snow Light Snow
7:15 AM -9.4 °F -30.6 °F -14.8 °F 77% 30.25 in 10.0 mi NNW 13.8 mph - N/A Snow Light Snow
7:35 AM -11.2 °F -32.9 °F -14.8 °F 84% 30.26 in 10.0 mi NNW 13.8 mph - N/A   Mostly Cloudy
7:55 AM -11.2 °F -31.1 °F -14.8 °F 84% 30.27 in 10.0 mi NNW 11.5 mph - N/A   Mostly Cloudy
8:15 AM -11.2 °F -31.1 °F -16.6 °F 77% 30.29 in 10.0 mi NNW 11.5 mph - N/A   Mostly Cloudy
8:35 AM -11.2 °F -30.1 °F -16.6 °F 77% 30.30 in 5.0 mi NNW 10.4 mph - N/A Snow Light Snow
8:55 AM - - - N/A% 30.30 in 4.0 mi NNW 11.5 mph - N/A   Unknown
9:15 AM -11.2 °F -30.1 °F -16.6 °F 77% 30.33 in 8.0 mi NNW 10.4 mph - N/A   Overcast
9:35 AM -11.2 °F -33.7 °F -16.6 °F 77% 30.33 in 9.0 mi NNW 15.0 mph - N/A   Mostly Cloudy
9:55 AM -11.2 °F -32.1 °F -16.6 °F 77% 30.34 in 5.0 mi NNW 12.7 mph - N/A Snow Light Snow
10:15 AM -11.2 °F -32.1 °F -16.6 °F 77% 30.36 in 6.0 mi NNW 12.7 mph - N/A Snow Light Snow
10:35 AM -11.2 °F -32.9 °F -16.6 °F 77% 30.37 in 10.0 mi NNW 13.8 mph - N/A   Mostly Cloudy
10:55 AM -11.2 °F -32.1 °F -16.6 °F 77% 30.39 in 10.0 mi North 12.7 mph - N/A   Mostly Cloudy
11:15 AM -11.2 °F -32.9 °F -16.6 °F 77% 30.40 in 10.0 mi North 13.8 mph - N/A   Partly Cloudy
11:35 AM -11.2 °F -32.9 °F -16.6 °F 77% 30.40 in 10.0 mi North 13.8 mph - N/A   Clear
11:55 AM -11.2 °F -32.1 °F -16.6 °F 77% 30.41 in 10.0 mi North 12.7 mph - N/A   Clear
12:15 PM -11.2 °F -32.1 °F -16.6 °F 77% 30.42 in 10.0 mi North 12.7 mph - N/A   Scattered Clouds
12:35 PM -11.2 °F -31.1 °F -16.6 °F 77% 30.43 in 10.0 mi North 11.5 mph - N/A   Overcast
12:55 PM -11.2 °F -29.0 °F -16.6 °F 77% 30.44 in 10.0 mi North 9.2 mph - N/A   Overcast
1:15 PM -11.2 °F -30.1 °F -18.4 °F 70% 30.43 in 9.0 mi North 10.4 mph - N/A Snow Light Snow
1:35 PM -11.2 °F -32.1 °F -18.4 °F 70% 30.43 in 10.0 mi North 12.7 mph - N/A   Overcast
1:55 PM -11.2 °F -31.1 °F -18.4 °F 70% 30.43 in 10.0 mi North 11.5 mph - N/A   Scattered Clouds
2:15 PM -11.2 °F -32.1 °F -18.4 °F 70% 30.44 in 10.0 mi North 12.7 mph - N/A   Clear
2:35 PM -11.2 °F -30.1 °F -18.4 °F 70% 30.45 in 10.0 mi North 10.4 mph - N/A   Clear
2:55 PM -11.2 °F -33.7 °F -18.4 °F 70% 30.45 in 10.0 mi North 15.0 mph - N/A   Clear
3:15 PM -11.2 °F -32.1 °F -20.2 °F 64% 30.45 in 10.0 mi North 12.7 mph - N/A   Clear
3:35 PM -11.2 °F -30.1 °F -20.2 °F 64% 30.47 in 10.0 mi North 10.4 mph - N/A   Clear
3:55 PM -11.2 °F -27.8 °F -20.2 °F 64% 30.48 in 10.0 mi North 8.1 mph - N/A   Clear
4:15 PM -11.2 °F -24.8 °F -20.2 °F 64% 30.49 in 10.0 mi NNE 5.8 mph - N/A   Clear
4:35 PM -11.2 °F - -20.2 °F 64% 30.50 in 10.0 mi Calm Calm - N/A   Clear
4:55 PM -13.0 °F -25.1 °F -20.2 °F 70% 30.50 in 10.0 mi NNE 4.6 mph - N/A   Clear
5:15 PM -14.8 °F -29.1 °F -22.0 °F 70% 30.51 in 10.0 mi NE 5.8 mph - N/A   Clear
5:35 PM -16.6 °F -31.3 °F -22.0 °F 76% 30.50 in 10.0 mi NE 5.8 mph - N/A   Clear
5:55 PM -16.6 °F -31.3 °F -22.0 °F 76% 30.51 in 10.0 mi NE 5.8 mph - N/A   Clear
6:15 PM -16.6 °F -31.3 °F -23.8 °F 70% 30.51 in 10.0 mi NE 5.8 mph - N/A   Clear
6:35 PM -18.4 °F -35.1 °F -25.6 °F 70% 30.51 in 10.0 mi NE 6.9 mph - N/A   Clear
6:55 PM -18.4 °F -31.4 °F -25.6 °F 70% 30.51 in 10.0 mi NE 4.6 mph - N/A   Clear
7:15 PM -18.4 °F -31.4 °F -25.6 °F 70% 30.51 in 10.0 mi NE 4.6 mph - N/A   Clear
7:35 PM -18.4 °F -31.4 °F -25.6 °F 70% 30.50 in 10.0 mi ENE 4.6 mph - N/A   Clear
7:55 PM -18.4 °F -35.1 °F -25.6 °F 70% 30.49 in 10.0 mi ENE 6.9 mph - N/A   Clear
8:15 PM -18.4 °F -36.6 °F -27.4 °F 63% 30.49 in 10.0 mi East 8.1 mph - N/A   Clear
8:35 PM -18.4 °F -33.4 °F -25.6 °F 70% 30.49 in 10.0 mi ENE 5.8 mph - N/A   Clear
8:55 PM -18.4 °F -33.4 °F -25.6 °F 70% 30.49 in 10.0 mi East 5.8 mph - N/A   Clear
9:15 PM -16.6 °F -29.3 °F -25.6 °F 64% 30.50 in 10.0 mi East 4.6 mph - N/A   Clear
9:35 PM -16.6 °F -31.3 °F -25.6 °F 64% 30.51 in 10.0 mi East 5.8 mph - N/A   Clear
10:15 PM -16.6 °F -29.3 °F -25.6 °F 64% 30.50 in 10.0 mi ESE 4.6 mph - N/A   Clear
10:35 PM -16.6 °F -29.3 °F -25.6 °F 64% 30.51 in 10.0 mi SE 4.6 mph - N/A   Clear
10:55 PM -16.6 °F -29.3 °F -25.6 °F 64% 30.51 in 10.0 mi SE 4.6 mph - N/A   Mostly Cloudy
11:15 PM -16.6 °F -32.9 °F -25.6 °F 64% 30.50 in 10.0 mi SSE 6.9 mph - N/A   Overcast
11:35 PM -16.6 °F -34.4 °F -25.6 °F 64% 30.50 in 10.0 mi SE 8.1 mph - N/A   Scattered Clouds
11:55 PM -16.6 °F -32.9 °F -23.8 °F 70% 30.50 in 10.0 mi SSE 6.9 mph - N/A   Scattered Clouds